Preview of NWS' New Version of Forecast
This preview is not operational and should not be used for support decisions.

Regional Weather Roundup (RWR)

Issued by National Weather Service (NWS)

                            
000
ASCA42 TJSJ 172010
RWRPR 
PUERTO RICO/U.S. VIRGIN ISLANDS HOURLY WEATHER ROUNDUP
NATIONAL WEATHER SERVICE SAN JUAN PR
400 PM AST SUN FEB 17 2019

PRZ001>002-007>008-010-172100-
PUERTO RICO
  
CITY           SKY/WX    TMP DP  RH WIND       PRES   REMARKS
SAN JUAN LMM   MOSUNNY   82  72  69 E10       30.03F                  
AGUADILLA      PTSUNNY   79  70  73 E12       30.06F                  
CEIBA          MOSUNNY   79  72  78 E9        30.05F                  
$$

VIZ001>002-172100-
U.S. VIRGIN ISLANDS
  
CITY           SKY/WX    TMP DP  RH WIND       PRES   REMARKS
CHARLOTTE AMA  MOSUNNY   82  72  69 SE10      30.04F                  
CHRISTIANSTED  MOSUNNY   84  73  70 E12       30.05F HX  91           
$$

HOURLY WEATHER ROUNDUP FOR THE NEWS MEDIA
  
CITY           SKY/WX    TMP DP  RH WIND       PRES   REMARKS
ORLANDO        FAIR      85  64  49 S12       29.95S                  
NEW YORK       PTSUNNY   33  21  61 S12       30.10F WCI  24          
NEWARK         PTSUNNY   36  16  44 S9        30.07F WCI  29          
CHICAGO        FLURRIES  27  23  85 E9        29.80F WCI  18          
HARTFORD       FAIR      35  16  45 S10       30.09S WCI  27          
BOSTON         FAIR      33  12  41 E6        30.10S WCI  28          
DALLAS         PTSUNNY   50  33  52 N7        29.98F                  
PHILADELPHIA   PTSUNNY   37  19  48 E3        30.06F                  
LOS ANGELES    CLOUDY    54  41  61 W23       30.07F                  
WASHINGTON DC  CLOUDY    38  22  52 SE9       30.03F WCI  31